Weather WX

World > North America > United States > North Carolina

Etowah, North Carolina Regional Weather

Lat: 35.32N, Lon: 82.6W
Wx Zone: NCZ065
Warning FLW WEATHER ALERT - (More Info. Click Here) Warning
Feedback

Etowah, NC Regional Weather

Expires:201906201500;;787418
ASUS42 KRAH 201410
RWRRAH
NORTH CAROLINA WEATHER ROUNDUP
NATIONAL WEATHER SERVICE RALEIGH NC
1000 AM EDT THU JUN 20 2019

NOTE: "FAIR" INDICATES FEW OR NO CLOUDS BELOW 12,000 FEET WITH NO
SIGNIFICANT WEATHER AND/OR OBSTRUCTIONS TO VISIBILITY.


NCZ001-053-055-056-065-067-201500-
WESTERN NORTH CAROLINA
  
CITY           SKY/WX    TMP DP  RH WIND       PRES   REMARKS
ASHEVILLE      FAIR      72  65  78 CALM      29.84F                  
JEFFERSON      PTSUNNY   67  61  80 W12       29.87S                  
MORGANTON      FAIR      78  63  58 SW7       29.82F                  
HICKORY        FAIR      78  68  71 S10       29.79S                  
WILKESBORO     NOT AVBL                                               
RUTHERFORDTON  LGT RAIN  73  72  94 SE6       29.79F                  
MOUNT AIRY     FAIR      75  71  87 W5        29.80S                  
BOONE          FAIR      68  61  78 NW12G17   29.89S                  
$$
 

SKY/WX - Weather  TMP - Temperature  DP - Dew Point  RH - Relative Humidity
WIND - Wind Direction/Speed PRES - Barometric Pressure VSB - Visibility
WCI - Wind Chill Index E13G22 Wind - East Wind 13 mph/Gusts of 22 mph